Hourly Weather Rusinow

Today, 16 April, Friday

Time Temperature Precipitation Wind Pressure Humidity
00:00 +1°C° 0.1 mm 3 mps 747 mmHg 99%
01:00 +2°C° 0 mm 3 mps 746 mmHg 98%
02:00 +2°C° 0.2 mm 3 mps 746 mmHg 98%
03:00 +2°C° 0.2 mm 3 mps 746 mmHg 98%
04:00 +1°C° 0.2 mm 4 mps 746 mmHg 98%
05:00 +1°C° 0.5 mm 4 mps 746 mmHg 98%
06:00 +1°C° 0.5 mm 4 mps 746 mmHg 97%
07:00 +1°C° 0.5 mm 4 mps 746 mmHg 97%
08:00 +1°C° 0.9 mm 4 mps 746 mmHg 97%
09:00 +1°C° 0.9 mm 4 mps 746 mmHg 97%
10:00 +1°C° 0.9 mm 5 mps 746 mmHg 97%
11:00 +1°C° 0.4 mm 5 mps 746 mmHg 97%
12:00 +2°C° 0.4 mm 5 mps 746 mmHg 96%
13:00 +2°C° 0.4 mm 5 mps 746 mmHg 96%
14:00 +2°C° 0.4 mm 5 mps 746 mmHg 96%
15:00 +2°C° 0.4 mm 5 mps 746 mmHg 96%
16:00 +3°C° 0.4 mm 4 mps 746 mmHg 97%
17:00 +3°C° 1 mm 4 mps 746 mmHg 97%
18:00 +1°C° 1 mm 4 mps 746 mmHg 97%
19:00 +2°C° 1 mm 3 mps 747 mmHg 97%
20:00 +2°C° 0.1 mm 3 mps 747 mmHg 97%
21:00 +2°C° 0.1 mm 3 mps 747 mmHg 98%
22:00 +2°C° 0.1 mm 3 mps 747 mmHg 98%
23:00 +2°C° 0 mm 3 mps 747 mmHg 98%

Tomorrow, 17 April, Saturday

Time Temperature Precipitation Wind Pressure Humidity
00:00 +2°C° 0 mm 3 mps 747 mmHg 98%
01:00 +2°C° 0 mm 3 mps 747 mmHg 98%
02:00 +2°C° 0.3 mm 3 mps 746 mmHg 98%
03:00 +3°C° 0.3 mm 3 mps 746 mmHg 98%
04:00 +3°C° 0.3 mm 3 mps 746 mmHg 98%
05:00 +3°C° 0.3 mm 3 mps 746 mmHg 98%
06:00 +3°C° 0.3 mm 3 mps 746 mmHg 98%
07:00 +4°C° 0.3 mm 2 mps 746 mmHg 98%
08:00 +5°C° 0.2 mm 2 mps 747 mmHg 97%
09:00 +5°C° 0.2 mm 2 mps 747 mmHg 96%
10:00 +7°C° 0.2 mm 1 mps 747 mmHg 96%
11:00 +8°C° 0.1 mm 1 mps 747 mmHg 92%
12:00 +8°C° 0.1 mm 2 mps 747 mmHg 89%
13:00 +8°C° 0.1 mm 2 mps 747 mmHg 85%
14:00 +8°C° 0.1 mm 2 mps 747 mmHg 84%
15:00 +9°C° 0.1 mm 2 mps 747 mmHg 83%
16:00 +9°C° 0.1 mm 2 mps 747 mmHg 81%
17:00 +8°C° 0 mm 2 mps 748 mmHg 84%
18:00 +7°C° 0 mm 2 mps 748 mmHg 86%
19:00 +6°C° 0 mm 2 mps 748 mmHg 89%
20:00 +6°C° 0 mm 2 mps 748 mmHg 90%
21:00 +6°C° 0 mm 2 mps 748 mmHg 91%
22:00 +5°C° 0 mm 2 mps 749 mmHg 92%
23:00 +5°C° 0 mm 2 mps 748 mmHg 93%

Day after tomorrow, 18 April, Sunday

Time Temperature Precipitation Wind Pressure Humidity
00:00 +5°C° 0 mm 2 mps 748 mmHg 94%
01:00 +5°C° 0 mm 1 mps 748 mmHg 95%
02:00 +5°C° 0 mm 1 mps 748 mmHg 95%
03:00 +4°C° 0 mm 1 mps 748 mmHg 95%
04:00 +4°C° 0 mm 1 mps 748 mmHg 95%
05:00 +4°C° 0 mm 2 mps 748 mmHg 91%
06:00 +5°C° 0 mm 2 mps 749 mmHg 87%
07:00 +6°C° 0 mm 2 mps 749 mmHg 83%
08:00 +7°C° 0 mm 2 mps 749 mmHg 76%
09:00 +8°C° 0 mm 2 mps 748 mmHg 70%
10:00 +10°C° 0 mm 3 mps 748 mmHg 64%
11:00 +11°C° 0 mm 3 mps 748 mmHg 61%
12:00 +12°C° 0 mm 3 mps 748 mmHg 57%
13:00 +13°C° 0 mm 3 mps 748 mmHg 54%
14:00 +13°C° 0 mm 3 mps 748 mmHg 55%
15:00 +13°C° 0 mm 3 mps 747 mmHg 57%
16:00 +13°C° 0 mm 3 mps 747 mmHg 58%
17:00 +12°C° 0 mm 3 mps 747 mmHg 65%
18:00 +10°C° 0 mm 3 mps 747 mmHg 71%
19:00 +9°C° 0 mm 2 mps 748 mmHg 78%
20:00 +9°C° 0 mm 2 mps 748 mmHg 80%
21:00 +9°C° 0 mm 2 mps 747 mmHg 82%
22:00 +9°C° 0 mm 2 mps 747 mmHg 84%
23:00 +9°C° 0.2 mm 2 mps 747 mmHg 88%

19 April, Monday

Time Temperature Precipitation Wind Pressure Humidity
00:00 +9°C° 0.2 mm 2 mps 747 mmHg 91%
01:00 +8°C° 0.2 mm 3 mps 747 mmHg 94%
02:00 +8°C° 0.1 mm 3 mps 747 mmHg 95%
03:00 +7°C° 0.1 mm 3 mps 747 mmHg 96%
04:00 +5°C° 0.1 mm 3 mps 747 mmHg 97%
05:00 +7°C° 0 mm 3 mps 747 mmHg 93%
06:00 +6°C° 0 mm 4 mps 747 mmHg 90%
07:00 +7°C° 0 mm 5 mps 747 mmHg 87%
08:00 +8°C° 0 mm 5 mps 747 mmHg 79%
09:00 +9°C° 0 mm 5 mps 747 mmHg 71%
10:00 +10°C° 0 mm 6 mps 747 mmHg 63%
11:00 +12°C° 0 mm 5 mps 746 mmHg 58%
12:00 +13°C° 0 mm 5 mps 746 mmHg 53%
13:00 +14°C° 0 mm 5 mps 746 mmHg 47%
14:00 +13°C° 0 mm 6 mps 745 mmHg 53%
15:00 +11°C° 0 mm 6 mps 745 mmHg 58%
16:00 +11°C° 0 mm 6 mps 745 mmHg 63%
17:00 +10°C° 0 mm 5 mps 745 mmHg 66%
18:00 +9°C° 0 mm 5 mps 745 mmHg 69%
19:00 +8°C° 0 mm 4 mps 745 mmHg 72%
20:00 +8°C° 0 mm 4 mps 745 mmHg 75%
21:00 +8°C° 0 mm 3 mps 745 mmHg 77%
22:00 +8°C° 0 mm 3 mps 745 mmHg 79%
23:00 +8°C° 0 mm 3 mps 745 mmHg 81%

20 April, Tuesday

Time Temperature Precipitation Wind Pressure Humidity
00:00 +7°C° 0 mm 3 mps 745 mmHg 83%
01:00 +7°C° 0 mm 3 mps 744 mmHg 84%
02:00 +6°C° 0 mm 2 mps 744 mmHg 87%
03:00 +6°C° 0 mm 2 mps 744 mmHg 89%
04:00 +5°C° 0 mm 2 mps 744 mmHg 91%
05:00 +6°C° 0 mm 2 mps 744 mmHg 88%
06:00 +6°C° 0 mm 2 mps 744 mmHg 86%
07:00 +7°C° 0 mm 2 mps 744 mmHg 83%
08:00 +7°C° 0.1 mm 2 mps 744 mmHg 79%
09:00 +8°C° 0.1 mm 3 mps 744 mmHg 75%
10:00 +8°C° 0.1 mm 3 mps 744 mmHg 71%
11:00 +9°C° 0 mm 3 mps 743 mmHg 68%
12:00 +9°C° 0 mm 3 mps 743 mmHg 65%
13:00 +9°C° 0 mm 3 mps 743 mmHg 62%
14:00 +10°C° 0 mm 3 mps 743 mmHg 61%
15:00 +10°C° 0 mm 4 mps 743 mmHg 60%
16:00 +10°C° 0 mm 4 mps 743 mmHg 59%
17:00 +9°C° 0 mm 3 mps 743 mmHg 65%
18:00 +8°C° 0 mm 3 mps 743 mmHg 71%
19:00 +5°C° 0 mm 3 mps 743 mmHg 77%
20:00 +5°C° 0 mm 3 mps 742 mmHg 80%
21:00 +4°C° 0 mm 3 mps 742 mmHg 84%
22:00 +4°C° 0 mm 3 mps 742 mmHg 88%
23:00 +4°C° 0 mm 3 mps 742 mmHg 90%

21 April, Wednesday

Time Temperature Precipitation Wind Pressure Humidity
00:00 +3°C° 0 mm 3 mps 742 mmHg 91%
01:00 +4°C° 0 mm 2 mps 742 mmHg 93%
02:00 +4°C° 0 mm 2 mps 742 mmHg 94%
03:00 +3°C° 0 mm 2 mps 742 mmHg 95%
04:00 +3°C° 0 mm 2 mps 742 mmHg 96%
05:00 +3°C° 0 mm 3 mps 742 mmHg 92%
06:00 +4°C° 0 mm 3 mps 743 mmHg 87%
07:00 +5°C° 0 mm 3 mps 743 mmHg 83%
08:00 +8°C° 0 mm 3 mps 743 mmHg 74%
09:00 +10°C° 0 mm 4 mps 743 mmHg 65%
10:00 +11°C° 0 mm 4 mps 743 mmHg 56%
11:00 +12°C° 0.1 mm 4 mps 743 mmHg 54%
12:00 +12°C° 0.1 mm 4 mps 743 mmHg 52%
13:00 +12°C° 0.1 mm 4 mps 742 mmHg 50%
14:00 +12°C° 0.1 mm 3 mps 742 mmHg 51%
15:00 +13°C° 0.1 mm 3 mps 742 mmHg 52%
16:00 +13°C° 0.1 mm 3 mps 742 mmHg 52%
17:00 +12°C° 0 mm 2 mps 743 mmHg 57%
18:00 +10°C° 0 mm 2 mps 743 mmHg 61%
19:00 +10°C° 0 mm 1 mps 743 mmHg 66%
20:00 +9°C° 0 mm 1 mps 743 mmHg 67%
21:00 +7°C° 0 mm 2 mps 743 mmHg 68%
22:00 +7°C° 0 mm 2 mps 743 mmHg 70%
23:00 +6°C° 0 mm 2 mps 743 mmHg 72%
Show more